Val-dIsere, France 16 day weather forecast

Slopes altitude range 1550 m - 3455m

Number of lifts: 94 Pistes: 300km

In some cases the lift and piste totals shown are for the ski domain (e.g. Three Valleys) rather than individual resort (e.g. Courchevel)

Overview

The 16 day weather forecast is fully updated 4 times every day.

    • Sat 20 APR 2019
    • Sat 20
    • -5C 0C
    • Sun 21 APR 2019
    • Sun 21
    • -3C 1C
    • Mon 22 APR 2019
    • Mon 22
    • -3C 2C
    • Tue 23 APR 2019
    • Tue 23
    • -3C 1C
    • Wed 24 APR 2019
    • Wed 24
    • -2C 1C
    • Thu 25 APR 2019
    • Thu 25
    • -2C 0C
    • Fri 26 APR 2019
    • Fri 26
    • -8C -7C
    • Sat 27 APR 2019
    • Sat 27
    • -7C -3C
    • Sun 28 APR 2019
    • Sun 28
    • -1C 3C
    • Mon 29 APR 2019
    • Mon 29
    • 2C 6C
    • Tue 30 APR 2019
    • Tue 30
    • 0C 11C
    • Wed 01 MAY 2019
    • Wed 01
    • 4C 11C
    • Thu 02 MAY 2019
    • Thu 02
    • 4C 12C
    • Fri 03 MAY 2019
    • Fri 03
    • 4C 11C
    • Sat 04 MAY 2019
    • Sat 04
    • 4C 14C
    • Sun 05 MAY 2019
    • Sun 05
    • 4C 13C

Date:

Time Type 0°C level Temp Chill Snow Cloud Speed Gust Dir Press
3:00 1538m -7°C -7_5 0cm 35% 5mph 6mph 1028mB
6:00 1718m -8°C -8_6 0cm 26% 6mph 7mph 1028mB
9:00 2426m -5°C -5_8 0cm 0% 8mph 9mph 1026mB
12:00 2616m 0°C 0_8 0cm 0% 8mph 10mph 1025mB
15:00 2665m 1°C 1_8 0cm 0% 8mph 9mph 1023mB
18:00 2094m 1°C 1_7 0cm 18% 7mph 8mph 1023mB
21:00 1843m -5°C -5_7 0cm 74% 7mph 8mph 1025mB
0:00 1921m -5°C -5_7 0cm 87% 7mph 8mph 1025mB
3:00 1848m -5°C -5_7 0cm 100% 7mph 8mph 1023mB
6:00 2093m -5°C -5_7 0cm 100% 7mph 9mph 1022mB
9:00 2613m -3°C -3_9 0cm 100% 9mph 11mph 1020mB
12:00 2666m 1°C 1_9 0cm 100% 9mph 10mph 1018mB
15:00 2592m 1°C 1_8 1cm 100% 8mph 9mph 1017mB
18:00 2331m 1°C 1_7 1cm 100% 7mph 8mph 1016mB
21:00 2023m -4°C -4_9 1cm 91% 9mph 10mph 1018mB
0:00 1932m -4°C -4_9 0cm 95% 9mph 10mph 1017mB
3:00 2125m -5°C -5_9 1cm 100% 9mph 10mph 1015mB
6:00 2175m -5°C -5_10 1cm 100% 10mph 11mph 1012mB
9:00 2527m -3°C -3_11 0cm 100% 11mph 13mph 1009mB
12:00 2669m 2°C 2_11 0cm 84% 11mph 13mph 1007mB
15:00 2637m 2°C 2_10 1cm 95% 10mph 11mph 1004mB
18:00 2342m 2°C 2_9 1cm 97% 9mph 11mph 1003mB
21:00 2318m -2°C -2_9 3cm 100% 9mph 10mph 1004mB
0:00 2236m -3°C -3_9 3cm 100% 9mph 11mph 1003mB
3:00 2142m -3°C -3_7 2cm 100% 7mph 7mph 1002mB
6:00 2244m -3°C -3_7 2cm 100% 7mph 7mph 1001mB
9:00 2597m -3°C -3_7 1cm 100% 7mph 8mph 1001mB
12:00 2682m 1°C 1_7 2cm 100% 7mph 7mph 1000mB
15:00 2695m 1°C 1_6 2cm 100% 6mph 6mph 1000mB
18:00 2642m 1°C 1_6 3cm 100% 6mph 7mph 1001mB
21:00 2439m -1°C -1_7 1cm 100% 7mph 8mph 1005mB
0:00 2315m -2°C -2_6 1cm 100% 6mph 7mph 1006mB
3:00 2299m -2°C -2_7 1cm 100% 7mph 7mph 1006mB
6:00 2331m -3°C -3_9 1cm 97% 9mph 10mph 1007mB
9:00 2543m -2°C -2_10 1cm 100% 10mph 12mph 1008mB
12:00 2663m 1°C 1_11 1cm 100% 11mph 12mph 1009mB
15:00 2610m 1°C 1_10 2cm 100% 10mph 11mph 1009mB
18:00 2529m 1°C 1_8 3cm 100% 8mph 9mph 1011mB
21:00 2514m -1°C -1_8 5cm 100% 8mph 9mph 1012mB
0:00 2463m -1°C -1_9 3cm 100% 9mph 10mph 1013mB
3:00 2378m -2°C -2_9 1cm 100% 9mph 10mph 1013mB
6:00 2347m -2°C -2_10 1cm 100% 10mph 12mph 1012mB
9:00 2479m -2°C -2_11 1cm 97% 11mph 12mph 1012mB
12:00 2527m 0°C 0_10 1cm 98% 10mph 12mph 1010mB
15:00 2554m 0°C 0_10 1cm 100% 10mph 12mph 1010mB
18:00 2487m 0°C 0_9 1cm 98% 9mph 11mph 1011mB
21:00 2384m -2°C -2_7 2cm 100% 7mph 8mph 1012mB
0:00 2223m -3°C -3_4 6cm 100% 4mph 6mph 1012mB
3:00 1639m -7°C -7_10 14cm 100% 10mph 13mph 1012mB
6:00 1399m -8°C -8_12 10cm 100% 12mph 14mph 1013mB
9:00 1509m -8°C -8_13 4cm 100% 13mph 16mph 1014mB
12:00 1590m -7°C -7_13 3cm 100% 13mph 15mph 1014mB
15:00 1694m -6°C -6_13 2cm 100% 13mph 17mph 1015mB
18:00 1586m -6°C -6_14 2cm 100% 14mph 20mph 1017mB
21:00 1500m -8°C -8_13 2cm 100% 13mph 17mph 1020mB
0:00 1530m -8°C -8_12 1cm 100% 12mph 15mph 1021mB
3:00 1501m -8°C -8_11 1cm 100% 11mph 13mph 1021mB
6:00 1509m -8°C -8_11 1cm 100% 11mph 12mph 1022mB
9:00 1898m -7°C -7_11 0cm 100% 11mph 11mph 1021mB
12:00 2113m -3°C -3_9 0cm 100% 9mph 10mph 1021mB
15:00 1978m -1°C -1_9 1cm 97% 9mph 12mph 1023mB
18:00 1922m -1°C -1_7 1cm 97% 7mph 11mph 1024mB
21:00 1813m -3°C -3_5 0cm 95% 5mph 7mph 1026mB
0:00 1404m -5°C -5_4 0cm 89% 4mph 5mph 1026mB
3:00 1282m -6°C -6_4 0cm 46% 4mph 4mph 1024mB
6:00 2103m -6°C -6_3 0cm 68% 3mph 3mph 1023mB
9:00 2532m -1°C -1_4 0cm 26% 4mph 5mph 1022mB
12:00 2602m 3°C 3_5 0cm 53% 5mph 6mph 1020mB
15:00 2596m 2°C 2_5 0cm 96% 5mph 6mph 1019mB
18:00 2584m 3°C 3_4 0cm 95% 4mph 5mph 1019mB
21:00 2211m -1°C -1_5 0cm 93% 5mph 6mph 1021mB
0:00 2013m -2°C -2_6 0cm 66% 6mph 6mph 1020mB
3:00 2153m -2°C -2_6 0cm 0% 6mph 7mph 1020mB
6:00 2898m -2°C -2_4 0cm 1% 4mph 5mph 1019mB
9:00 2864m 2°C 2_3 0cm 4% 3mph 3mph 1017mB
12:00 2846m 6°C 6_4 0cm 29% 4mph 4mph 1015mB
15:00 2824m 5°C 5_4 0cm 95% 4mph 5mph 1013mB
18:00 2776m 5°C 5_3 0cm 94% 3mph 4mph 1013mB
21:00 2784m 1°C 1_4 0cm 83% 4mph 5mph 1015mB
0:00 2212m -1°C -1_6 0cm 52% 6mph 7mph 1015mB
Afternoon 0mm 0 2888m 11°C 11_4 0cm 7% 4mph 6mph 1011mB
Morning 0.015625mm 0.125 3044m 4°C 4_7 0cm 55% 7mph 8mph 1011mB
Afternoon 0.0104167mm 0 3012m 11°C 11_9 0cm 88% 9mph 11mph 1008mB
Morning 0.0677083mm 0 3003m 4°C 4_10 0cm 73% 10mph 15mph 1010mB
Afternoon 0.177083mm 0.75 3071m 12°C 12_6 0cm 81% 6mph 8mph 1009mB
Morning 0.609375mm 5.1875 3028m 5°C 5_5 0cm 84% 5mph 6mph 1012mB
Afternoon 0.354167mm 2.625 3069m 11°C 11_4 0cm 59% 4mph 5mph 1010mB
Morning 0.557292mm 3.625 3120m 5°C 5_3 0cm 84% 3mph 4mph 1013mB
Afternoon 0.104167mm 1.0625 3214m 14°C 14_5 0cm 51% 5mph 5mph 1011mB
Morning 0.255208mm 2.9375 3299m 5°C 5_2 0cm 47% 2mph 3mph 1013mB
Afternoon 0.161458mm 1.5625 3179m 13°C 13_6 0cm 71% 6mph 7mph 1010mB
Morning 0.255208mm 0.75 3128m 5°C 5_3 0cm 92% 3mph 4mph 1013mB

16 day outlook at a glance

Forecast issued: 20/04/2019 06:17:13

Chat

Your comments and questions. In a resort? Let us know what it's like!


Characters left 250

For terms and conditions see Readers Comments on the Cookie and privacy policy page.